Погода в Тарутино

Украина / Одесская область     46°11′12″N   29°08′55″E
темп.,
°C
ветер,
м/с
пор.,
м/с
влажн.,
%
обл.,
%
осадки,
мм/ч
давл.,
гПа
погр.,
м
28 ноября, вс
вс2823:00+8ююз33803 0.0 100533
02:00+7ю22840 0.0 100511
05:00+7юв228180 0.0 100415
08:00+7вюв358885 0.0 100378
11:00+13ююв51086100 0.0 1002418
14:00+15ю5873100 0.0 1001577
17:00+11ю47904 0.0 1001118
20:00+10ю489270 0.0 1001137
29 ноября, пн
пн2923:00+9ю41188100 0.0 1000193
02:00+9ююв51291100 0.0 998270
05:00+10ю61488100 0.0 996410
08:00+11ю71491100 0.0 994447
11:00+14ю71281100 0.1 992730
14:00+15ююз71376100 1.3 989859
17:00+10зюз1017586 0.8 991751
20:00+6сз81675100 0.8 996701
30 ноября, вт
вт3023:00+4зсз4107681 0.0 1000440
02:00+3сз24803 0.0 1002101
05:00+3сз2577100 0.0 1003112
08:00+3с3671100 0.0 1005242
11:00+4с6955100 0.0 1004539
14:00+5с81248100 0.0 10031021
17:00+4ссз91552100 0.0 1005988
20:00+2ссз5126416 0.0 1006598
1 декабря, ср
ср123:000з48715 0.0 1008173
02:00+1зюз7146189 0.0 1008401
05:000юз7146258 0.0 1007389
08:00+2зюз7176555 0.0 1007738
11:00+5з91351100 0.0 1008748
14:00+8з611385 0.0 10071786
17:00+6зюз611535 0.0 1008292
20:00+4юз59669 0.0 1009174
2 декабря, чт
чт223:00+3юз367017 0.0 1010100
02:00+3ююз410755 0.0 1009165
05:00+3юз4118211 0.0 1009201
08:00+3юз512815 0.0 1009202
11:00+8юз69555 0.0 1009319
14:00+10юз57485 0.0 1008499
17:00+6ююз49615 0.0 1008181
20:00+5ю4116680 0.0 1008215